{"data":{"norad_id":64100,"epoch":"2026-09-20T05:21:40.599648Z","epoch_age_seconds":167540,"freshness":"FRESH","line1":"1 64100U 25110E   26263.22338657  .00017728  00000+0  53450-3 0  9999","line2":"2 64100  53.1597 202.6640 0001615 100.9360 259.1824 15.34405203 75678","mean_motion":15.34405203,"eccentricity":0.0001615,"inclination_deg":53.1597,"raan_deg":202.664,"arg_perigee_deg":100.936,"mean_anomaly_deg":259.1824,"bstar":0.0005345,"rev_number":7567,"period_min":93.847439853865,"perigee_km":461.58298263702,"apogee_km":463.79256903962,"semimajor_km":6840.8247758383,"source":"CELESTRAK","updated_at":"2026-09-21T09:00:35.227128Z"}}